Weather in Unzha

Russia / Kostroma Oblast     58°01′05″N   44°00′45″E
temp.,
°C
wind,
m/s
gust,
m/s
humid.,
%
clouds,
%
prec.,
mm/h
press.,
hPa
HPBL,
m
11 april, sun
sun1100:00−2s27940 0.0 102698
03:00−2ssw29930 0.0 1027154
06:00−2ssw310933 0.0 1027187
09:00+5sw48755 0.0 1028386
12:00+9sw46695 0.0 1028744
15:00+11wsw466651 0.0 10301181
18:00+7wsw248994 0.1 103174
21:00+5sw1195100 0.1 103414
12 april, mon
mon1200:00+3wnw129546 0.0 103528
03:00+3ene139499 0.0 103757
06:00+3ene249497 0.0 1038100
09:00+7ese248054 0.0 1038336
12:00+12se236363 0.0 1037842
15:00+13se3460100 0.0 10371185
18:00+9ese3780100 0.0 1036252
21:00+6se31093100 0.0 1036348
13 april, tue
tue1300:00+4se31096100 0.0 1035302
03:00+4se3996100 0.0 1033311
06:00+5se3897100 0.0 1032268
09:00+10s368094 0.0 1031390
12:00+16s476194 0.0 1029755
15:00+18s575471 0.0 10281134
18:00+14s3969100 0.0 1027268
21:00+9s3980100 0.0 1027162
14 april, wed
wed1400:00+8s398099 0.0 1027165
03:00+6ssw288361 0.0 1026137
06:00+6s278251 0.0 1026141
09:00+13ssw475782 0.0 1025401
12:00+17ssw57445 0.0 1024870
15:00+18sw573952 0.0 10231225
18:00+15ssw265147 0.0 1022146
21:00+11s3868100 0.0 1022144
15 april, thu
thu1500:00+9ssw397898 0.0 1021165
03:00+7ssw258296 0.0 102073
06:00+7sw2281100 0.0 102045
09:00+12sw2361100 0.0 1019297
12:00+17wsw2344100 0.0 1018991
15:00+18wnw2341100 0.0 10171821
18:00+12n5871100 0.0 1018501
21:00+7n4983100 0.1 1020520